sat.trackr.live / text

‹ back to catalog

STARLINK-30950

NORAD 58440 · 2023-183D

PAYLOAD ACTIVE UNKNOWN

§ Identity

Operator
Country
US
Launch date
2023-11-28
Launch site
AFETR
Launch vehicle
Mass (kg)
RCS (m²)

Purposes: comms

External: N2YO · Heavens-Above · Gunter

§ Orbital elements

Epoch: 2026-05-24T23:58:28.586208Z

Period
94.27 min
Inclination
43.0005°
Eccentricity
0.0001470
Mean motion
15.27591590 rev/d
Perigee alt
482.0 km
Apogee alt
484.0 km
Semi-major
6,861.2 km
B*
1.1528e-4
RAAN
134.1723°
Arg perigee
277.2183°
Mean anomaly
82.8502°
Rev number
14,070

§ Raw data

STARLINK-309501 58440U 23183D   26144.99894197  .00002912  00000+0  11528-3 0  99942 58440  43.0005 134.1723 0001470 277.2183  82.8502 15.27591590140709

JSON: /api/v1/satellites/58440 · /tle

For live sub-satellite position, see the globe view (requires WebGL).

§ Visibility from observer

Set your observer location to see the next 7 days of passes ≥ 10°. The values pass through the URL so the page stays shareable.

No JS? Fill the form by hand. The geolocation button needs JavaScript.